Find Optus B1

NORAD ID: 22087 Int'l Des: 1992-054 Owner: OPT Country: AU operational
HEOCIRCULAR

当前视图

正在加载3D地球...

About Optus B1

Optus B1 (NORAD 22087) is a satellite launched Aug 13, 1992 by OPT of AU. It operates in HEO, CIRCULAR orbit with a mass of 2900.00 kg.

即将过境

Passes for default location (London). Set your location on the main map for personalized predictions.

高度历史

Loading altitude history...

两行轨道根数

1 22087U 92054A 26195.10824083 .00000035 00000-0 00000+0 0 9995
2 22087 12.9731 23.9092 0009424 122.4407 68.2332 0.99202116134976
Epoch: Jul 14, 2026 • Age: 8 hours

当前状态

高度 36130.8 km
远地点 / 近地点 N/A
速度 3.06 km/s
星下点 -10.54°S, 116.9°W
发射日期 Aug 13, 1992
运行时间 33.9 years
类型 other

技术详情

分类 Payload
质量 2900.00 kg
干质量 1200.00 kg
总质量 2900.00 kg
长度 2.30 m
直径 2.30 m
跨度 20.60 m
形状 Box + 2 Pan
制造商 HSES
平台类型 HS-601
阶段状态 In Orbit
所有者/国家 OPT/AU

Most Searched